• In Hungary
  • List of Countries
  • For 7 days
  • Water Temperature
  • Satellite Maps
  • Weather Map
  • News
  • Weather Widgets
  • user-avatar
    Login

    Hourly Weather Novaya Sakma

    Today, 16 August, Thursday

    Time Temperature Precipitation Wind Pressure Humidity
    00:00 +20°C° 0 mm 2 mps 761 mmHg 47%
    01:00 +20°C° 0 mm 2 mps 761 mmHg 48%
    02:00 +20°C° 0 mm 2 mps 761 mmHg 49%
    03:00 +19°C° 0 mm 2 mps 761 mmHg 49%
    04:00 +19°C° 0 mm 2 mps 761 mmHg 50%
    05:00 +20°C° 0 mm 2 mps 761 mmHg 51%
    06:00 +20°C° 0 mm 2 mps 761 mmHg 52%
    07:00 +22°C° 0 mm 3 mps 761 mmHg 46%
    08:00 +26°C° 0 mm 4 mps 761 mmHg 40%
    09:00 +28°C° 0 mm 4 mps 761 mmHg 34%
    10:00 +29°C° 0 mm 4 mps 761 mmHg 32%
    11:00 +30°C° 0 mm 4 mps 761 mmHg 30%
    12:00 +32°C° 0 mm 4 mps 761 mmHg 28%
    13:00 +32°C° 0 mm 4 mps 760 mmHg 28%
    14:00 +33°C° 0 mm 4 mps 760 mmHg 28%
    15:00 +33°C° 0 mm 4 mps 760 mmHg 27%
    16:00 +31°C° 0 mm 3 mps 760 mmHg 31%
    17:00 +31°C° 0 mm 3 mps 759 mmHg 34%
    18:00 +30°C° 0 mm 2 mps 759 mmHg 37%
    19:00 +28°C° 0 mm 2 mps 759 mmHg 39%
    20:00 +27°C° 0 mm 2 mps 759 mmHg 41%
    21:00 +26°C° 0 mm 2 mps 759 mmHg 42%
    22:00 +25°C° 0 mm 2 mps 759 mmHg 43%
    23:00 +25°C° 0 mm 2 mps 759 mmHg 44%

    Tomorrow, 17 August, Friday

    Time Temperature Precipitation Wind Pressure Humidity
    00:00 +24°C° 0 mm 2 mps 759 mmHg 46%
    01:00 +24°C° 0 mm 2 mps 759 mmHg 48%
    02:00 +23°C° 0 mm 2 mps 759 mmHg 51%
    03:00 +23°C° 0 mm 1 mps 759 mmHg 54%
    04:00 +23°C° 0.1 mm 1 mps 759 mmHg 56%
    05:00 +23°C° 0.1 mm 1 mps 759 mmHg 59%
    06:00 +23°C° 0.1 mm 2 mps 759 mmHg 61%
    07:00 +24°C° 0.1 mm 2 mps 759 mmHg 59%
    08:00 +26°C° 0.1 mm 2 mps 759 mmHg 58%
    09:00 +27°C° 0.1 mm 3 mps 759 mmHg 56%
    10:00 +27°C° 0.1 mm 3 mps 759 mmHg 56%
    11:00 +28°C° 0.1 mm 4 mps 759 mmHg 56%
    12:00 +28°C° 0.1 mm 5 mps 759 mmHg 56%
    13:00 +27°C° 0.3 mm 5 mps 759 mmHg 57%
    14:00 +27°C° 0.3 mm 6 mps 759 mmHg 59%
    15:00 +26°C° 0.3 mm 6 mps 759 mmHg 61%
    16:00 +24°C° 0.6 mm 6 mps 759 mmHg 62%
    17:00 +23°C° 0.6 mm 6 mps 759 mmHg 64%
    18:00 +21°C° 0.6 mm 5 mps 759 mmHg 66%
    19:00 +20°C° 0 mm 5 mps 760 mmHg 68%
    20:00 +19°C° 0 mm 5 mps 760 mmHg 69%
    21:00 +18°C° 0 mm 4 mps 760 mmHg 71%
    22:00 +18°C° 0 mm 4 mps 760 mmHg 73%
    23:00 +17°C° 0 mm 4 mps 760 mmHg 74%

    Day after tomorrow, 18 August, Saturday

    Time Temperature Precipitation Wind Pressure Humidity
    00:00 +17°C° 0 mm 4 mps 761 mmHg 76%
    01:00 +15°C° 0 mm 4 mps 761 mmHg 78%
    02:00 +15°C° 0 mm 4 mps 761 mmHg 79%
    03:00 +14°C° 0 mm 4 mps 761 mmHg 80%
    04:00 +14°C° 0 mm 4 mps 761 mmHg 79%
    05:00 +14°C° 0 mm 5 mps 761 mmHg 77%
    06:00 +15°C° 0 mm 5 mps 762 mmHg 75%
    07:00 +16°C° 0 mm 5 mps 762 mmHg 67%
    08:00 +19°C° 0 mm 6 mps 762 mmHg 59%
    09:00 +21°C° 0 mm 6 mps 762 mmHg 51%
    10:00 +22°C° 0 mm 6 mps 762 mmHg 48%
    11:00 +22°C° 0 mm 6 mps 762 mmHg 44%
    12:00 +23°C° 0 mm 6 mps 761 mmHg 41%
    13:00 +23°C° 0 mm 6 mps 761 mmHg 41%
    14:00 +24°C° 0 mm 6 mps 761 mmHg 40%
    15:00 +24°C° 0 mm 6 mps 761 mmHg 40%
    16:00 +23°C° 0 mm 6 mps 761 mmHg 42%
    17:00 +22°C° 0 mm 6 mps 761 mmHg 45%
    18:00 +21°C° 0 mm 5 mps 761 mmHg 48%
    19:00 +20°C° 0 mm 5 mps 762 mmHg 52%
    20:00 +17°C° 0 mm 5 mps 762 mmHg 56%
    21:00 +16°C° 0 mm 5 mps 762 mmHg 60%
    22:00 +15°C° 0 mm 4 mps 762 mmHg 64%
    23:00 +14°C° 0 mm 4 mps 762 mmHg 68%

    19 August, Sunday

    Time Temperature Precipitation Wind Pressure Humidity
    00:00 +14°C° 0 mm 4 mps 763 mmHg 72%
    01:00 +13°C° 0 mm 4 mps 763 mmHg 74%
    02:00 +13°C° 0 mm 4 mps 763 mmHg 76%
    03:00 +12°C° 0 mm 4 mps 763 mmHg 78%
    04:00 +12°C° 0 mm 4 mps 763 mmHg 78%
    05:00 +12°C° 0 mm 4 mps 763 mmHg 77%
    06:00 +13°C° 0 mm 4 mps 763 mmHg 76%
    07:00 +14°C° 0 mm 5 mps 763 mmHg 69%
    08:00 +16°C° 0 mm 5 mps 763 mmHg 61%
    09:00 +17°C° 0 mm 6 mps 763 mmHg 54%
    10:00 +19°C° 0 mm 6 mps 763 mmHg 50%
    11:00 +20°C° 0 mm 6 mps 763 mmHg 46%
    12:00 +21°C° 0 mm 6 mps 762 mmHg 42%
    13:00 +21°C° 0 mm 6 mps 762 mmHg 41%
    14:00 +22°C° 0 mm 6 mps 762 mmHg 41%
    15:00 +22°C° 0 mm 6 mps 762 mmHg 41%
    16:00 +21°C° 0 mm 5 mps 762 mmHg 44%
    17:00 +21°C° 0 mm 5 mps 762 mmHg 47%
    18:00 +20°C° 0 mm 4 mps 762 mmHg 50%
    19:00 +19°C° 0 mm 4 mps 762 mmHg 54%
    20:00 +17°C° 0 mm 3 mps 762 mmHg 59%
    21:00 +16°C° 0 mm 3 mps 763 mmHg 63%
    22:00 +14°C° 0 mm 3 mps 763 mmHg 66%
    23:00 +14°C° 0 mm 3 mps 763 mmHg 69%

    20 August, Monday

    Time Temperature Precipitation Wind Pressure Humidity
    00:00 +13°C° 0 mm 3 mps 763 mmHg 72%
    01:00 +12°C° 0 mm 3 mps 763 mmHg 74%
    02:00 +12°C° 0 mm 3 mps 763 mmHg 76%
    03:00 +12°C° 0 mm 3 mps 763 mmHg 78%
    04:00 +12°C° 0 mm 3 mps 763 mmHg 78%
    05:00 +12°C° 0 mm 3 mps 763 mmHg 77%
    06:00 +12°C° 0 mm 3 mps 763 mmHg 77%
    07:00 +14°C° 0 mm 3 mps 763 mmHg 68%
    08:00 +17°C° 0 mm 3 mps 763 mmHg 59%
    09:00 +19°C° 0 mm 3 mps 764 mmHg 51%
    10:00 +20°C° 0 mm 3 mps 763 mmHg 46%
    11:00 +21°C° 0 mm 3 mps 763 mmHg 42%
    12:00 +22°C° 0 mm 3 mps 763 mmHg 38%
    13:00 +23°C° 0 mm 2 mps 763 mmHg 36%
    14:00 +24°C° 0 mm 2 mps 763 mmHg 35%
    15:00 +24°C° 0 mm 2 mps 763 mmHg 34%
    16:00 +24°C° 0 mm 2 mps 762 mmHg 36%
    17:00 +23°C° 0 mm 2 mps 762 mmHg 39%
    18:00 +23°C° 0 mm 1 mps 762 mmHg 42%
    19:00 +21°C° 0 mm 1 mps 763 mmHg 44%
    20:00 +20°C° 0 mm 1 mps 763 mmHg 47%
    21:00 +18°C° 0 mm 1 mps 763 mmHg 50%
    22:00 +18°C° 0 mm 1 mps 763 mmHg 51%
    23:00 +16°C° 0 mm 1 mps 763 mmHg 53%

    21 August, Tuesday

    Time Temperature Precipitation Wind Pressure Humidity
    00:00 +16°C° 0 mm 1 mps 763 mmHg 54%
    01:00 +15°C° 0 mm 0 mps 763 mmHg 56%
    02:00 +14°C° 0 mm 0 mps 763 mmHg 57%
    03:00 +14°C° 0 mm 0 mps 763 mmHg 58%
    04:00 +14°C° 0 mm 0 mps 763 mmHg 58%
    05:00 +15°C° 0 mm 0 mps 763 mmHg 58%
    06:00 +15°C° 0 mm 0 mps 764 mmHg 58%
    07:00 +19°C° 0 mm 1 mps 764 mmHg 52%
    08:00 +21°C° 0 mm 1 mps 764 mmHg 46%
    09:00 +23°C° 0 mm 2 mps 764 mmHg 40%
    10:00 +24°C° 0 mm 2 mps 764 mmHg 37%
    11:00 +25°C° 0 mm 2 mps 763 mmHg 34%
    12:00 +26°C° 0 mm 3 mps 763 mmHg 31%
    13:00 +27°C° 0 mm 3 mps 763 mmHg 30%
    14:00 +27°C° 0 mm 3 mps 763 mmHg 29%
    15:00 +28°C° 0 mm 3 mps 762 mmHg 28%
    16:00 +27°C° 0 mm 2 mps 762 mmHg 31%
    17:00 +26°C° 0 mm 2 mps 762 mmHg 34%
    18:00 +25°C° 0 mm 2 mps 762 mmHg 37%
    19:00 +24°C° 0 mm 1 mps 762 mmHg 39%
    20:00 +22°C° 0 mm 1 mps 762 mmHg 41%
    21:00 +21°C° 0 mm 1 mps 762 mmHg 42%
    22:00 +20°C° 0 mm 1 mps 762 mmHg 43%
    23:00 +20°C° 0 mm 1 mps 762 mmHg 44%
    Show more